Погода в Самагалтае

Россия / Республика Тыва     50°36′01″N   95°00′18″E
темп.,
°C
ветер,
м/с
пор.,
м/с
влажн.,
%
обл.,
%
осадки,
мм/ч
давл.,
гПа
погр.,
м
22 мая, вс
вс2201:00+11всв44430 0.0 101442
04:00+10всв33440 0.0 101419
07:00+15вюв22350 0.0 1013139
10:00+19ююз3325100 0.0 1011988
13:00+23юз3417100 0.0 10071543
16:00+24зюз441596 0.0 10051688
19:00+22зсз232245 0.0 100599
22:00+17всв3323100 0.0 100613
23 мая, пн
пн2301:00+17в2222100 0.0 100611
04:00+15в1125100 0.0 100611
07:00+19св112399 0.0 100872
10:00+22с782744 0.0 10101838
13:00+24с772710 0.0 10102717
16:00+23с98315 0.0 10102205
19:00+20с810405 0.0 10131155
22:00+15св4757100 0.0 1015216
24 мая, вт
вт2401:00+12св456454 0.0 1018105
04:00+11св567158 0.0 1018104
07:00+14св565780 0.0 1018393
10:00+19всв123794 0.0 10171484
13:00+23с232986 0.0 10152471
16:00+23св653053 0.0 10131629
19:00+21св673481 0.0 1014872
22:00+16св5649100 0.0 101595
25 мая, ср
ср2501:00+15всв455412 0.0 101663
04:00+14всв445086 0.0 101637
07:00+18в233947 0.0 1015153
10:00+23ююв562438 0.0 10141193
13:00+26ю442310 0.0 10111773
16:00+27зюз4422100 0.0 10092247
19:00+25зсз2328100 0.0 100982
22:00+19св223650 0.0 100911
26 мая, чт
чт2601:00+18всв224293 0.2 100914
04:00+18ссв2246100 0.1 100818
07:00+19св4542100 0.1 1008270
10:00+21св5644100 0.0 1007739
13:00+21ссв7749100 0.3 10071246
16:00+17св71156100 0.2 1008734
19:00+16ссв485894 0.2 1009714
22:00+12св33790 0.0 101258